TimeCST,TemperatureF,Dew PointF,Humidity,Sea Level PressureIn,VisibilityMPH,Wind Direction,Wind SpeedMPH,Gust SpeedMPH,PrecipitationIn,Events,Conditions,WindDirDegrees,DateUTC
12:55 AM,6.1,-2.0,69,29.75,5.0,NNW,24.2,42.6,0.00,Snow,Light Snow,330,2013-02-19 06:55:00
1:44 AM,5.0,-2.2,72,29.67,2.5,NNW,21.9,36.8,0.00,Snow,Light Snow,330,2013-02-19 07:44:00
1:55 AM,3.9,-2.9,73,29.78,2.5,NNW,27.6,35.7,0.00,Snow,Light Snow,330,2013-02-19 07:55:00
2:02 AM,3.2,-2.2,78,29.68,3.0,NNW,25.3,36.8,0.00,Snow,Light Snow,330,2013-02-19 08:02:00
2:55 AM,1.9,-5.1,72,29.80,5.0,NNW,29.9,40.3,0.00,Snow,Light Snow,340,2013-02-19 08:55:00
3:55 AM,-0.0,-9.0,66,29.82,6.0,NNW,19.6,36.8,0.00,Snow,Light Snow,330,2013-02-19 09:55:00
4:55 AM,-2.0,-9.9,69,29.85,4.0,NW,20.7,29.9,0.00,Snow,Light Snow,320,2013-02-19 10:55:00
5:55 AM,-4.0,-11.9,69,29.88,6.0,NNW,19.6,35.7,0.00,Snow,Light Snow,330,2013-02-19 11:55:00
6:55 AM,-5.1,-14.1,65,29.91,7.0,NW,24.2,36.8,0.00,,Mostly Cloudy,320,2013-02-19 12:55:00
7:55 AM,-6.0,-14.1,68,29.96,10.0,NNW,19.6,36.8,N/A,,Scattered Clouds,330,2013-02-19 13:55:00
8:55 AM,-5.1,-14.1,65,29.98,10.0,NNW,25.3,35.7,N/A,,Scattered Clouds,330,2013-02-19 14:55:00
9:55 AM,-2.9,-13.0,62,30.01,10.0,NNW,18.4,33.4,N/A,,Scattered Clouds,330,2013-02-19 15:55:00
10:55 AM,-0.9,-13.0,57,30.04,10.0,NW,24.2,29.9,N/A,,Partly Cloudy,320,2013-02-19 16:55:00
11:55 AM,1.0,-11.9,55,30.07,10.0,NNW,17.3,32.2,N/A,,Clear,330,2013-02-19 17:55:00
12:55 PM,1.9,-11.9,52,30.09,10.0,NNW,21.9,31.1,N/A,,Partly Cloudy,330,2013-02-19 18:55:00
1:55 PM,3.9,-9.9,53,30.10,10.0,NNW,18.4,29.9,N/A,,Partly Cloudy,340,2013-02-19 19:55:00
2:55 PM,5.0,-9.0,52,30.14,10.0,NW,23.0,28.8,N/A,,Partly Cloudy,320,2013-02-19 20:55:00
3:55 PM,6.1,-8.0,53,30.18,10.0,NNW,19.6,26.5,N/A,,Partly Cloudy,330,2013-02-19 21:55:00
4:55 PM,5.0,-9.0,52,30.22,10.0,NNW,18.4,25.3,N/A,,Partly Cloudy,330,2013-02-19 22:55:00
6:55 PM,1.9,-8.0,63,30.29,10.0,NNW,13.8,21.9,N/A,,Partly Cloudy,330,2013-02-20 00:55:00
7:55 PM,3.0,-7.1,63,30.31,10.0,North,16.1,26.5,N/A,,Clear,350,2013-02-20 01:55:00
8:55 PM,3.0,-7.1,63,30.33,10.0,NNW,16.1,27.6,N/A,,Partly Cloudy,340,2013-02-20 02:55:00
9:55 PM,1.9,-7.1,66,30.33,10.0,NNW,19.6,27.6,N/A,,Clear,340,2013-02-20 03:55:00
10:55 PM,1.0,-8.0,66,30.37,10.0,North,10.4,18.4,N/A,,Clear,350,2013-02-20 04:55:00
11:55 PM,-0.4,-7.6,72,30.24,10.0,North,16.1,24.2,N/A,,Clear,350,2013-02-20 05:55:00